G1OCN-WX Weather Reports


time (UTC)temp
C
wind
direction
speed
KPH
gust
KPH
rain 1hr
cm
rain 24hr
cm
rain mn
cm
humidity
%
barometer
mb
20260506011456 11 47 19.3 24.1 0.00 0.00 0.00 72 1012.4
20260506011356 11 48 19.3 20.9 0.00 0.00 0.00 72 1012.4
20260506011256 11 47 19.3 24.1 0.00 0.00 0.00 72 1012.4
20260506011156 11 45 19.3 22.5 0.00 0.00 0.00 72 1012.5
20260506011056 11 50 22.5 25.7 0.00 0.00 0.00 72 1012.5
20260506010956 11 52 20.9 29.0 0.00 0.00 0.00 72 1012.5
20260506010856 11 56 22.5 22.5 0.00 0.00 0.00 71 1012.5
20260506010726 11 49 22.5 32.2 0.00 0.00 0.00 71 1012.5
20260506010626 11 49 22.5 27.4 0.00 0.00 0.00 71 1012.5
20260506010526 11 50 20.9 29.0 0.00 0.00 0.00 71 1012.5
20260506010426 11 52 22.5 24.1 0.00 0.00 0.00 71 1012.5
20260506010326 11 48 27.4 32.2 0.00 0.00 0.00 71 1012.5
20260506010226 11 47 24.1 33.8 0.00 0.00 0.00 71 1012.6
20260506010126 11 49 22.5 27.4 0.00 0.00 0.00 71 1012.5
20260506010026 11 50 20.9 29.0 0.00 0.00 0.00 71 1012.5
20260506005925 11 50 19.3 25.7 0.00 0.00 0.00 71 1012.5
20260506005825 11 44 22.5 25.7 0.00 0.00 0.00 71 1012.5
20260506005725 11 45 22.5 27.4 0.00 0.00 0.00 71 1012.5
20260506005625 11 47 20.9 27.4 0.00 0.00 0.00 71 1012.5
20260506005525 11 54 22.5 24.1 0.00 0.00 0.00 71 1012.5
20260506005425 11 49 22.5 27.4 0.00 0.00 0.00 71 1012.5
20260506005325 11 50 22.5 22.5 0.00 0.00 0.00 71 1012.5
20260506005225 11 44 24.1 32.2 0.00 0.00 0.00 71 1012.5
20260506005125 11 45 24.1 29.0 0.00 0.00 0.00 71 1012.5
20260506005025 11 45 22.5 32.2 0.00 0.00 0.00 71 1012.5
20260506004925 11 52 22.5 25.7 0.00 0.00 0.00 71 1012.5
20260506004825 11 50 24.1 29.0 0.00 0.00 0.00 71 1012.5
20260506004725 11 52 22.5 29.0 0.00 0.00 0.00 71 1012.5
20260506004625 11 47 19.3 22.5 0.00 0.00 0.00 71 1012.5
20260506004525 11 47 22.5 22.5 0.00 0.00 0.00 71 1012.5
20260506004425 11 48 24.1 29.0 0.00 0.00 0.00 72 1012.5
20260506004325 11 49 20.9 32.2 0.00 0.00 0.00 72 1012.5
20260506004224 11 42 22.5 25.7 0.00 0.00 0.00 72 1012.6
20260506004124 11 43 22.5 29.0 0.00 0.00 0.00 72 1012.5
20260506004024 11 49 20.9 24.1 0.00 0.00 0.00 72 1012.5
20260506003924 11 50 20.9 24.1 0.00 0.00 0.00 72 1012.6
20260506003824 11 37 22.5 25.7 0.00 0.00 0.00 72 1012.5
20260506003724 11 51 20.9 27.4 0.00 0.00 0.00 72 1012.5
20260506003624 11 49 19.3 22.5 0.00 0.00 0.00 72 1012.6
20260506003454 11 47 22.5 29.0 0.00 0.00 0.00 72 1012.6
20260506003354 11 47 19.3 27.4 0.00 0.00 0.00 72 1012.6
20260506003254 11 49 19.3 19.3 0.00 0.00 0.00 72 1012.6
20260506003154 11 43 19.3 22.5 0.00 0.00 0.00 72 1012.6
20260506003054 11 46 22.5 22.5 0.00 0.00 0.00 72 1012.6
20260506002954 11 44 22.5 29.0 0.00 0.00 0.00 72 1012.6
20260506002854 11 42 22.5 27.4 0.00 0.00 0.00 72 1012.6
20260506002754 11 46 20.9 25.7 0.00 0.00 0.00 72 1012.6
20260506002654 11 40 19.3 27.4 0.00 0.00 0.00 72 1012.6
20260506002554 11 52 20.9 22.5 0.00 0.00 0.00 72 1012.6
20260506002454 11 52 20.9 25.7 0.00 0.00 0.00 72 1012.6
20260506002354 11 44 22.5 25.7 0.00 0.00 0.00 72 1012.6
20260506002253 11 51 20.9 25.7 0.00 0.00 0.00 72 1012.6
20260506002153 11 43 20.9 22.5 0.00 0.00 0.00 72 1012.7
20260506002053 11 51 20.9 27.4 0.00 0.00 0.00 72 1012.7
20260506001953 11 49 22.5 25.7 0.00 0.00 0.00 72 1012.6
20260506001853 11 38 20.9 29.0 0.00 0.00 0.00 72 1012.6
20260506001753 11 50 19.3 24.1 0.00 0.00 0.00 72 1012.6
20260506001653 11 52 16.1 22.5 0.00 0.00 0.00 72 1012.7
20260506001553 11 48 19.3 20.9 0.00 0.00 0.00 72 1012.7
20260506001453 11 45 20.9 24.1 0.00 0.00 0.00 71 1012.6
20260506001353 11 41 20.9 25.7 0.00 0.00 0.00 72 1012.6
20260506001253 11 51 22.5 25.7 0.00 0.00 0.00 71 1012.7
20260506001153 11 47 22.5 29.0 0.00 0.00 0.00 71 1012.7
20260506001053 11 50 22.5 24.1 0.00 0.00 0.00 71 1012.6
20260506000953 11 45 24.1 29.0 0.00 0.00 0.00 71 1012.6
20260506000853 11 50 20.9 27.4 0.00 0.00 0.00 71 1012.6
20260506000752 11 45 20.9 24.1 0.00 0.00 0.00 71 1012.6
20260506000652 11 46 22.5 24.1 0.00 0.00 0.00 71 1012.5
20260506000552 11 44 24.1 27.4 0.00 0.00 0.00 71 1012.5
20260506000452 11 52 22.5 29.0 0.00 0.00 0.00 71 1012.6
20260506000354 11 48 22.5 32.2 0.00 0.00 0.00 71 1012.5
20260506000254 11 53 22.5 29.0 0.00 0.00 0.00 71 1012.5
20260506000152 11 48 20.9 29.0 0.00 0.00 0.00 71 1012.5
20260506000052 11 44 22.5 25.7 0.00 0.00 0.00 71 1012.5
20260505235952 11 46 24.1 29.0 0.00 0.00 0.00 71 1012.5
20260505235852 11 43 24.1 29.0 0.00 0.00 0.00 71 1012.5
20260505235722 11 49 20.9 29.0 0.00 0.00 0.00 71 1012.5
20260505235622 11 45 20.9 24.1 0.00 0.00 0.00 71 1012.5
20260505235522 11 44 19.3 24.1 0.00 0.00 0.00 71 1012.5
20260505235352 11 40 20.9 24.1 0.00 0.00 0.00 71 1012.5
20260505235222 11 49 22.5 27.4 0.00 0.00 0.00 71 1012.5
20260505235122 11 49 22.5 25.7 0.00 0.00 0.00 71 1012.5
20260505234952 11 47 24.1 25.7 0.00 0.00 0.00 71 1012.5
20260505234852 11 41 22.5 29.0 0.00 0.00 0.00 71 1012.6
20260505234722 11 38 22.5 27.4 0.00 0.00 0.00 71 1012.5
20260505234622 11 48 20.9 25.7 0.00 0.00 0.00 71 1012.6
20260505234452 11 39 19.3 32.2 0.00 0.00 0.00 71 1012.6
20260505234352 11 51 20.9 24.1 0.00 0.00 0.00 71 1012.6
20260505234222 11 48 22.5 27.4 0.00 0.00 0.00 71 1012.6
20260505234122 11 50 19.3 25.7 0.00 0.00 0.00 71 1012.6
20260505234022 11 48 20.9 25.7 0.00 0.00 0.00 71 1012.6
20260505233922 11 48 22.5 25.7 0.00 0.00 0.00 71 1012.6
20260505233822 11 49 19.3 25.7 0.00 0.00 0.00 71 1012.6
20260505233722 11 45 19.3 20.9 0.00 0.00 0.00 71 1012.6
20260505233622 11 42 19.3 22.5 0.00 0.00 0.00 71 1012.6
20260505233522 11 33 20.9 29.0 0.00 0.00 0.00 71 1012.6
20260505233422 11 47 20.9 25.7 0.00 0.00 0.00 71 1012.6
20260505233322 11 48 22.5 27.4 0.00 0.00 0.00 71 1012.6
20260505233152 11 47 20.9 25.7 0.00 0.00 0.00 70 1012.7
20260505233052 11 48 22.5 25.7 0.00 0.00 0.00 70 1012.7
20260505232922 11 49 20.9 27.4 0.00 0.00 0.00 70 1012.7
20260505232822 11 51 22.5 25.7 0.00 0.00 0.00 70 1012.7
20260505232652 11 49 22.5 32.2 0.00 0.00 0.00 70 1012.7
20260505232522 11 46 22.5 25.7 0.00 0.00 0.00 70 1012.7
20260505232422 11 42 20.9 25.7 0.00 0.00 0.00 70 1012.7
20260505232322 11 41 22.5 27.4 0.00 0.00 0.00 70 1012.7
20260505232222 11 43 24.1 32.2 0.00 0.00 0.00 70 1012.7
20260505232052 11 46 22.5 27.4 0.00 0.00 0.00 70 1012.7
20260505231922 11 36 22.5 27.4 0.00 0.00 0.00 70 1012.8
20260505231822 11 46 22.5 27.4 0.00 0.00 0.00 70 1012.7
20260505231722 11 44 22.5 27.4 0.00 0.00 0.00 70 1012.7
20260505231622 11 46 22.5 27.4 0.00 0.00 0.00 70 1012.7
20260505231452 11 48 25.7 29.0 0.00 0.00 0.00 70 1012.8
20260505231322 11 50 22.5 32.2 0.00 0.00 0.00 70 1012.8
20260505231152 11 44 19.3 24.1 0.00 0.00 0.00 70 1012.7
20260505231022 11 50 20.9 25.7 0.00 0.00 0.00 70 1012.7
20260505230922 11 50 22.5 25.7 0.00 0.00 0.00 70 1012.7
20260505230822 11 43 19.3 25.7 0.00 0.00 0.00 70 1012.7
20260505230722 11 43 20.9 22.5 0.00 0.00 0.00 70 1012.7
20260505230622 11 49 22.5 25.7 0.00 0.00 0.00 70 1012.7
20260505230522 11 42 22.5 29.0 0.00 0.00 0.00 70 1012.8
20260505230352 11 49 22.5 27.4 0.00 0.00 0.00 70 1012.8
20260505230222 11 40 24.1 27.4 0.00 0.00 0.00 70 1012.8
20260505230052 11 51 19.3 27.4 0.00 0.00 0.00 70 1012.8
20260505225952 11 48 19.3 22.5 0.00 0.00 0.00 70 1012.8
20260505225822 11 43 19.3 19.3 0.00 0.00 0.00 70 1012.8
20260505225722 11 52 20.9 25.7 0.00 0.00 0.00 69 1012.9
20260505225622 11 51 24.1 25.7 0.00 0.00 0.00 69 1012.9
20260505225452 11 39 22.5 29.0 0.00 0.00 0.00 70 1012.9
20260505225322 11 41 22.5 27.4 0.00 0.00 0.00 69 1012.9
20260505225222 11 45 20.9 29.0 0.00 0.00 0.00 70 1012.9
20260505225052 11 50 24.1 33.8 0.00 0.00 0.00 69 1012.9
20260505224922 11 44 20.9 32.2 0.00 0.00 0.00 70 1012.9
20260505224822 11 48 22.5 29.0 0.00 0.00 0.00 70 1012.9
20260505224722 11 47 20.9 29.0 0.00 0.00 0.00 70 1012.9
20260505224622 11 40 20.9 24.1 0.00 0.00 0.00 70 1012.9
20260505224522 11 50 24.1 29.0 0.00 0.00 0.00 69 1012.9
20260505224422 11 53 22.5 32.2 0.00 0.00 0.00 69 1012.9
20260505224252 11 47 24.1 27.4 0.00 0.00 0.00 69 1012.9
20260505224152 11 46 22.5 25.7 0.00 0.00 0.00 69 1012.9
20260505224022 11 43 20.9 27.4 0.00 0.00 0.00 70 1012.9
20260505223852 11 36 22.5 29.0 0.00 0.00 0.00 69 1012.9
20260505223750 11 36 22.5 32.2 0.00 0.00 0.00 69 1012.9
20260505223620 11 46 20.9 22.5 0.00 0.00 0.00 69 1012.9
20260505223520 11 50 24.1 25.7 0.00 0.00 0.00 69 1012.9
20260505223420 11 46 22.5 29.0 0.00 0.00 0.00 69 1012.9
20260505223320 11 36 24.1 32.2 0.00 0.00 0.00 69 1012.9
20260505223150 11 43 22.5 27.4 0.00 0.00 0.00 69 1012.9
20260505223050 11 50 24.1 29.0 0.00 0.00 0.00 69 1012.9
20260505222950 11 43 22.5 32.2 0.00 0.00 0.00 69 1012.9
20260505222820 11 47 20.9 24.1 0.00 0.00 0.00 69 1012.9
20260505222720 11 39 20.9 25.7 0.00 0.00 0.00 69 1012.9
20260505222620 11 50 20.9 25.7 0.00 0.00 0.00 69 1012.9
20260505222520 11 49 22.5 29.0 0.00 0.00 0.00 69 1012.9
20260505222350 11 51 24.1 29.0 0.00 0.00 0.00 69 1012.9
20260505222250 11 47 22.5 27.4 0.00 0.00 0.00 69 1012.9
20260505222120 11 51 22.5 24.1 0.00 0.00 0.00 69 1012.9
20260505221950 11 46 19.3 24.1 0.00 0.00 0.00 69 1012.9
20260505221850 11 46 19.3 20.9 0.00 0.00 0.00 69 1012.9
20260505221720 11 40 19.3 24.1 0.00 0.00 0.00 69 1012.9
20260505221550 11 49 22.5 25.7 0.00 0.00 0.00 69 1012.9
20260505221420 11 51 22.5 27.4 0.00 0.00 0.00 69 1012.9
20260505221250 11 49 22.5 29.0 0.00 0.00 0.00 69 1012.9
20260505221150 11 51 19.3 29.0 0.00 0.00 0.00 69 1012.9
20260505221050 11 50 20.9 25.7 0.00 0.00 0.00 69 1012.9
20260505220920 11 47 20.9 27.4 0.00 0.00 0.00 69 1012.9
20260505220820 11 44 20.9 25.7 0.00 0.00 0.00 68 1012.9
20260505220650 11 40 19.3 22.5 0.00 0.00 0.00 69 1012.9
20260505220520 11 50 19.3 24.1 0.00 0.00 0.00 69 1012.9
20260505220350 11 49 16.1 20.9 0.00 0.00 0.00 69 1012.9
20260505220250 11 45 19.3 19.3 0.00 0.00 0.00 68 1013.0
20260505220150 11 36 20.9 22.5 0.00 0.00 0.00 68 1012.9
20260505220050 11 42 20.9 29.0 0.00 0.00 0.00 68 1013.0
20260505215920 11 49 22.5 27.4 0.00 0.00 0.00 68 1012.9
20260505215750 11 48 19.3 22.5 0.00 0.00 0.00 68 1012.9
20260505215620 11 46 19.3 22.5 0.00 0.00 0.00 68 1012.9
20260505215450 11 54 16.1 22.5 0.00 0.00 0.00 68 1013.0
20260505215350 11 42 16.1 20.9 0.00 0.00 0.00 68 1013.0
20260505215250 11 41 16.1 19.3 0.00 0.00 0.00 68 1012.9
20260505215120 11 45 22.5 22.5 0.00 0.00 0.00 68 1012.9
20260505215020 11 36 20.9 27.4 0.00 0.00 0.00 68 1012.9
20260505214920 11 47 19.3 22.5 0.00 0.00 0.00 68 1012.9
20260505214750 11 41 20.9 22.5 0.00 0.00 0.00 68 1012.9
20260505214620 11 44 22.5 27.4 0.00 0.00 0.00 68 1012.9
20260505214520 11 40 22.5 27.4 0.00 0.00 0.00 68 1012.9
20260505214420 11 46 20.9 32.2 0.00 0.00 0.00 68 1013.0
20260505214320 11 42 20.9 20.9 0.00 0.00 0.00 67 1012.9
20260505214220 11 45 20.9 27.4 0.00 0.00 0.00 68 1012.9
20260505214120 11 49 20.9 25.7 0.00 0.00 0.00 68 1012.9
20260505213950 11 47 20.9 27.4 0.00 0.00 0.00 68 1013.0
20260505213850 11 47 19.3 25.7 0.00 0.00 0.00 68 1012.9
20260505213720 11 41 20.9 25.7 0.00 0.00 0.00 68 1012.9
20260505213620 11 49 20.9 25.7 0.00 0.00 0.00 68 1013.0
20260505213450 11 49 20.9 27.4 0.00 0.00 0.00 68 1012.9
20260505213350 11 44 19.3 25.7 0.00 0.00 0.00 68 1013.0
20260505213250 11 41 20.9 24.1 0.00 0.00 0.00 67 1013.0
20260505213120 11 53 20.9 25.7 0.00 0.00 0.00 67 1013.0
20260505213020 11 52 20.9 25.7 0.00 0.00 0.00 68 1012.9
20260505212850 11 48 19.3 22.5 0.00 0.00 0.00 68 1013.0
20260505212750 11 41 20.9 25.7 0.00 0.00 0.00 68 1013.0
20260505212650 11 43 20.9 22.5 0.00 0.00 0.00 68 1013.0
20260505212550 11 47 20.9 24.1 0.00 0.00 0.00 68 1013.0
20260505212420 11 47 19.3 24.1 0.00 0.00 0.00 68 1013.0
20260505212320 11 49 16.1 24.1 0.00 0.00 0.00 68 1013.0
20260505212220 12 50 14.5 20.9 0.00 0.00 0.00 68 1013.0
20260505212120 12 54 16.1 24.1 0.00 0.00 0.00 68 1013.1
20260505211950 12 48 16.1 22.5 0.00 0.00 0.00 68 1013.0
20260505211850 12 48 16.1 22.5 0.00 0.00 0.00 68 1013.0
20260505211720 12 32 14.5 19.3 0.00 0.00 0.00 68 1013.0
20260505211620 12 40 14.5 19.3 0.00 0.00 0.00 68 1013.0
20260505211520 12 46 19.3 25.7 0.00 0.00 0.00 67 1013.0
20260505211350 12 52 19.3 20.9 0.00 0.00 0.00 67 1013.0
20260505211220 12 45 20.9 27.4 0.00 0.00 0.00 67 1013.0
20260505211120 12 44 20.9 20.9 0.00 0.00 0.00 67 1013.0
20260505211020 12 44 20.9 25.7 0.00 0.00 0.00 67 1013.0
20260505210920 12 36 22.5 25.7 0.00 0.00 0.00 67 1012.9
20260505210820 12 35 24.1 32.2 0.00 0.00 0.00 67 1012.9
20260505210650 12 47 20.9 25.7 0.00 0.00 0.00 67 1013.0
20260505210550 12 38 20.9 24.1 0.00 0.00 0.00 67 1013.0
20260505210420 12 50 16.1 25.7 0.00 0.00 0.00 68 1013.0
20260505210320 12 47 16.1 22.5 0.00 0.00 0.00 68 1013.0
20260505210150 12 39 20.9 25.7 0.00 0.00 0.00 67 1013.0
20260505210050 12 47 19.3 24.1 0.00 0.00 0.00 67 1012.9
20260505205950 12 48 20.9 25.7 0.00 0.00 0.00 67 1012.9
20260505205850 12 53 20.9 25.7 0.00 0.00 0.00 67 1012.9
20260505205750 12 48 20.9 24.1 0.00 0.00 0.00 67 1012.9
20260505205650 12 47 22.5 32.2 0.00 0.00 0.00 67 1012.9
20260505205520 12 49 19.3 27.4 0.00 0.00 0.00 67 1013.0
20260505205420 12 60 22.5 24.1 0.00 0.00 0.00 67 1012.9
20260505205250 12 48 20.9 32.2 0.00 0.00 0.00 67 1012.9
20260505205150 12 46 22.5 25.7 0.00 0.00 0.00 67 1012.9
20260505205050 12 47 19.3 25.7 0.00 0.00 0.00 67 1012.9
20260505204950 12 46 20.9 24.1 0.00 0.00 0.00 67 1012.9
20260505204820 12 42 19.3 24.1 0.00 0.00 0.00 67 1012.9
20260505204650 12 46 16.1 20.9 0.00 0.00 0.00 67 1012.9
20260505204550 12 46 16.1 20.9 0.00 0.00 0.00 67 1012.9
20260505204420 12 46 16.1 19.3 0.00 0.00 0.00 67 1012.9
20260505204320 12 42 16.1 24.1 0.00 0.00 0.00 67 1012.9
20260505204220 12 35 19.3 20.9 0.00 0.00 0.00 67 1012.9
20260505204120 12 46 20.9 20.9 0.00 0.00 0.00 67 1012.9
20260505204019 12 44 19.3 29.0 0.00 0.00 0.00 67 1012.9
20260505203850 12 23 14.5 19.3 0.00 0.00 0.00 67 1012.9
20260505203749 12 33 19.3 20.9 0.00 0.00 0.00 67 1012.9
20260505203620 12 21 19.3 22.5 0.00 0.00 0.00 66 1012.9
20260505203519 12 27 20.9 24.1 0.00 0.00 0.00 66 1012.9
20260505203349 12 33 19.3 24.1 0.00 0.00 0.00 66 1012.9
20260505203249 12 32 19.3 22.5 0.00 0.00 0.00 66 1012.9
20260505203149 12 21 20.9 25.7 0.00 0.00 0.00 66 1012.8
20260505203019 12 35 19.3 22.5 0.00 0.00 0.00 66 1012.8
20260505202919 12 28 19.3 24.1 0.00 0.00 0.00 66 1012.8
20260505202749 12 40 19.3 25.7 0.00 0.00 0.00 66 1012.8
20260505202619 12 32 20.9 25.7 0.00 0.00 0.00 65 1012.8
20260505202519 12 39 19.3 24.1 0.00 0.00 0.00 65 1012.8
20260505202350 12 50 19.3 19.3 0.00 0.00 0.00 65 1012.8
20260505202219 12 52 16.1 20.9 0.00 0.00 0.00 65 1012.8
20260505202119 12 52 16.1 19.3 0.00 0.00 0.00 65 1012.8
20260505202019 12 56 16.1 24.1 0.00 0.00 0.00 65 1012.8
20260505201849 12 33 20.9 24.1 0.00 0.00 0.00 65 1012.8
20260505201749 12 38 22.5 25.7 0.00 0.00 0.00 65 1012.7
20260505201649 12 38 20.9 29.0 0.00 0.00 0.00 65 1012.8
20260505201549 12 30 19.3 27.4 0.00 0.00 0.00 65 1012.8
20260505201419 12 34 19.3 20.9 0.00 0.00 0.00 64 1012.8
20260505201319 12 35 20.9 24.1 0.00 0.00 0.00 64 1012.8
20260505201149 12 32 16.1 20.9 0.00 0.00 0.00 64 1012.8
20260505201049 12 26 14.5 20.9 0.00 0.00 0.00 64 1012.8
20260505200919 12 24 20.9 22.5 0.00 0.00 0.00 64 1012.8
20260505200749 12 29 22.5 29.0 0.00 0.00 0.00 64 1012.8
20260505200620 13 32 14.5 27.4 0.00 0.00 0.00 64 1012.8
20260505200519 13 46 19.3 24.1 0.00 0.00 0.00 63 1012.8
20260505200349 13 40 19.3 22.5 0.00 0.00 0.00 63 1012.7
20260505200249 13 41 20.9 25.7 0.00 0.00 0.00 63 1012.7
20260505200149 13 34 19.3 24.1 0.00 0.00 0.00 63 1012.7
20260505200049 13 19 22.5 24.1 0.00 0.00 0.00 63 1012.6
20260505195919 13 26 24.1 29.0 0.00 0.00 0.00 62 1012.6
20260505195749 13 34 16.1 19.3 0.00 0.00 0.00 63 1012.6
20260505195649 13 24 16.1 22.5 0.00 0.00 0.00 62 1012.6
20260505195519 13 28 16.1 20.9 0.00 0.00 0.00 62 1012.6
20260505195349 13 19 16.1 22.5 0.00 0.00 0.00 63 1012.5
20260505195249 13 39 14.5 20.9 0.00 0.00 0.00 62 1012.5
20260505195149 13 55 12.9 19.3 0.00 0.00 0.00 62 1012.5
20260505195019 13 46 12.9 16.1 0.00 0.00 0.00 62 1012.5
20260505194919 13 46 12.9 19.3 0.00 0.00 0.00 62 1012.4
20260505194749 13 28 19.3 19.3 0.00 0.00 0.00 61 1012.5
20260505194619 13 37 19.3 22.5 0.00 0.00 0.00 61 1012.4
20260505194449 13 45 16.1 22.5 0.00 0.00 0.00 62 1012.5
20260505194349 13 42 14.5 20.9 0.00 0.00 0.00 61 1012.4
20260505194249 13 44 12.9 19.3 0.00 0.00 0.00 62 1012.4
20260505194119 13 25 16.1 19.3 0.00 0.00 0.00 61 1012.4
20260505194019 13 31 16.1 22.5 0.00 0.00 0.00 61 1012.4
20260505193919 13 33 19.3 19.3 0.00 0.00 0.00 61 1012.4
20260505193819 13 34 19.3 27.4 0.00 0.00 0.00 61 1012.4
20260505193649 13 34 16.1 24.1 0.00 0.00 0.00 61 1012.4
20260505193549 13 34 20.9 24.1 0.00 0.00 0.00 60 1012.3
20260505193449 13 29 24.1 29.0 0.00 0.00 0.00 60 1012.4
20260505193349 13 22 16.1 24.1 0.00 0.00 0.00 61 1012.4
20260505193249 13 30 19.3 22.5 0.00 0.00 0.00 60 1012.3
20260505193119 13 25 16.1 25.7 0.00 0.00 0.00 61 1012.4
20260505193019 13 35 14.5 19.3 0.00 0.00 0.00 60 1012.4
20260505192919 13 38 16.1 19.3 0.00 0.00 0.00 60 1012.3
20260505192819 13 29 12.9 24.1 0.00 0.00 0.00 60 1012.3
20260505192719 13 22 16.1 20.9 0.00 0.00 0.00 60 1012.3
20260505192549 13 41 19.3 20.9 0.00 0.00 0.00 60 1012.3
20260505192449 13 38 20.9 24.1 0.00 0.00 0.00 60 1012.3
20260505192349 13 29 20.9 27.4 0.00 0.00 0.00 60 1012.3
20260505192249 13 19 19.3 20.9 0.00 0.00 0.00 59 1012.3
20260505192119 13 27 19.3 24.1 0.00 0.00 0.00 60 1012.4
20260505192019 13 35 19.3 22.5 0.00 0.00 0.00 59 1012.3
20260505191919 13 25 12.9 22.5 0.00 0.00 0.00 60 1012.4
20260505191819 13 44 12.9 19.3 0.00 0.00 0.00 59 1012.3
20260505191649 13 27 20.9 27.4 0.00 0.00 0.00 59 1012.3
20260505191549 13 29 14.5 22.5 0.00 0.00 0.00 59 1012.3
20260505191449 13 36 14.5 19.3 0.00 0.00 0.00 59 1012.3
20260505191319 13 27 16.1 19.3 0.00 0.00 0.00 59 1012.3
20260505191149 13 30 19.3 20.9 0.00 0.00 0.00 59 1012.3
20260505191049 13 30 19.3 24.1 0.00 0.00 0.00 59 1012.3
20260505190919 13 28 16.1 24.1 0.00 0.00 0.00 59 1012.3
20260505190819 13 38 14.5 22.5 0.00 0.00 0.00 59 1012.3
20260505190649 13 23 20.9 27.4 0.00 0.00 0.00 59 1012.2
20260505190549 13 19 16.1 24.1 0.00 0.00 0.00 59 1012.3
20260505190449 13 30 14.5 20.9 0.00 0.00 0.00 59 1012.3
20260505190349 13 31 14.5 19.3 0.00 0.00 0.00 59 1012.3
20260505190219 13 16 12.9 19.3 0.00 0.00 0.00 59 1012.3
20260505190119 13 21 12.9 16.1 0.00 0.00 0.00 59 1012.2
20260505190019 13 28 12.9 19.3 0.00 0.00 0.00 59 1012.3
20260505185919 13 29 14.5 16.1 0.00 0.00 0.00 59 1012.2
20260505185749 13 37 16.1 22.5 0.00 0.00 0.00 59 1012.3
20260505185649 13 25 14.5 22.5 0.00 0.00 0.00 59 1012.2
20260505185549 13 24 16.1 19.3 0.00 0.00 0.00 59 1012.2
20260505185419 13 29 16.1 20.9 0.00 0.00 0.00 59 1012.2
20260505185319 13 28 14.5 19.3 0.00 0.00 0.00 59 1012.2
20260505185149 13 23 12.9 19.3 0.00 0.00 0.00 59 1012.2
20260505185019 13 18 12.9 16.1 0.00 0.00 0.00 59 1012.2
20260505184919 13 27 14.5 16.1 0.00 0.00 0.00 58 1012.2
20260505184819 13 36 12.9 20.9 0.00 0.00 0.00 59 1012.2
20260505184719 14 32 11.3 19.3 0.00 0.00 0.00 59 1012.2
20260505184549 14 30 16.1 22.5 0.00 0.00 0.00 58 1012.2
20260505184449 14 34 16.1 20.9 0.00 0.00 0.00 58 1012.2
20260505184319 14 30 20.9 22.5 0.00 0.00 0.00 57 1012.2
20260505184219 14 18 22.5 27.4 0.00 0.00 0.00 57 1012.2
20260505184049 14 12 20.9 24.1 0.00 0.00 0.00 57 1012.2
20260505183949 14 26 16.1 22.5 0.00 0.00 0.00 57 1012.2
20260505183849 14 25 14.5 19.3 0.00 0.00 0.00 57 1012.2
20260505183719 14 31 19.3 22.5 0.00 0.00 0.00 57 1012.2
20260505183549 14 16 20.9 27.4 0.00 0.00 0.00 57 1012.1
20260505183449 14 26 20.9 24.1 0.00 0.00 0.00 57 1012.2
20260505183319 14 28 20.9 24.1 0.00 0.00 0.00 57 1012.1
20260505183219 14 24 20.9 25.7 0.00 0.00 0.00 58 1012.2
20260505183119 14 21 14.5 25.7 0.00 0.00 0.00 59 1012.1
20260505183019 14 8 16.1 19.3 0.00 0.00 0.00 58 1012.1
20260505182849 14 33 14.5 19.3 0.00 0.00 0.00 58 1012.1
20260505182749 14 40 12.9 19.3 0.00 0.00 0.00 58 1012.1
20260505182649 14 36 11.3 16.1 0.00 0.00 0.00 58 1012.1
20260505182519 14 27 16.1 20.9 0.00 0.00 0.00 57 1012.1
20260505182419 14 30 19.3 20.9 0.00 0.00 0.00 57 1012.1
20260505182319 14 37 12.9 20.9 0.00 0.00 0.00 58 1012.1
20260505182219 14 20 12.9 16.1 0.00 0.00 0.00 58 1012.0
20260505182119 14 24 14.5 19.3 0.00 0.00 0.00 57 1012.0
20260505182019 14 40 16.1 19.3 0.00 0.00 0.00 58 1012.0
20260505181919 14 17 19.3 24.1 0.00 0.00 0.00 58 1012.0
20260505181819 14 22 12.9 24.1 0.00 0.00 0.00 58 1012.1
20260505181719 14 33 14.5 19.3 0.00 0.00 0.00 57 1012.1
20260505181619 14 30 16.1 22.5 0.00 0.00 0.00 57 1012.1
20260505181449 14 59 11.3 19.3 0.00 0.00 0.00 58 1012.0
20260505181349 14 48 11.3 14.5 0.00 0.00 0.00 58 1012.1
20260505181219 14 21 14.5 19.3 0.00 0.00 0.00 57 1012.1
20260505181119 14 35 16.1 19.3 0.00 0.00 0.00 58 1012.1
20260505181019 14 43 16.1 19.3 0.00 0.00 0.00 57 1012.1
20260505180849 14 29 12.9 19.3 0.00 0.00 0.00 58 1012.1
20260505180749 14 21 12.9 14.5 0.00 0.00 0.00 58 1012.1
20260505180649 14 23 12.9 20.9 0.00 0.00 0.00 58 1012.0
20260505180519 14 27 14.5 19.3 0.00 0.00 0.00 57 1012.1
20260505180419 14 35 14.5 19.3 0.00 0.00 0.00 58 1012.1
20260505180249 14 15 14.5 19.3 0.00 0.00 0.00 58 1012.0
20260505180149 14 32 11.3 19.3 0.00 0.00 0.00 58 1012.0
20260505180049 14 50 11.3 14.5 0.00 0.00 0.00 58 1012.0
20260505175919 14 44 12.9 16.1 0.00 0.00 0.00 58 1012.0
20260505175749 14 16 14.5 19.3 0.00 0.00 0.00 58 1012.0
20260505175649 14 18 19.3 20.9 0.00 0.00 0.00 57 1012.0
20260505175519 14 28 19.3 22.5 0.00 0.00 0.00 57 1012.0
20260505175419 14 32 12.9 25.7 0.00 0.00 0.00 58 1012.0
20260505175249 14 28 12.9 16.1 0.00 0.00 0.00 58 1012.0
20260505175119 14 23 14.5 19.3 0.00 0.00 0.00 57 1012.0
20260505175019 14 32 14.5 19.3 0.00 0.00 0.00 57 1012.0
20260505174849 14 40 16.1 22.5 0.00 0.00 0.00 58 1012.1
20260505174719 14 32 16.1 19.3 0.00 0.00 0.00 57 1012.1
20260505174619 14 45 12.9 19.3 0.00 0.00 0.00 58 1012.1
20260505174519 14 43 12.9 14.5 0.00 0.00 0.00 58 1012.1
20260505174419 14 34 12.9 16.1 0.00 0.00 0.00 58 1012.1
20260505174319 14 38 14.5 19.3 0.00 0.00 0.00 57 1012.2
20260505174149 14 29 11.3 19.3 0.00 0.00 0.00 57 1012.1
20260505174019 14 28 9.7 14.5 0.00 0.00 0.00 58 1012.1
20260505173919 14 44 11.3 11.3 0.00 0.00 0.00 57 1012.1
20260505173819 14 27 14.5 19.3 0.00 0.00 0.00 57 1012.1
20260505173719 14 28 12.9 19.3 0.00 0.00 0.00 57 1012.1
20260505173618 14 30 12.9 19.3 0.00 0.00 0.00 58 1012.2
20260505173518 14 43 11.3 14.5 0.00 0.00 0.00 58 1012.1
20260505173418 14 47 12.9 14.5 0.00 0.00 0.00 57 1012.2
20260505173318 14 34 12.9 19.3 0.00 0.00 0.00 58 1012.1
20260505173218 14 45 14.5 19.3 0.00 0.00 0.00 58 1012.1
20260505173118 14 40 20.9 24.1 0.00 0.00 0.00 57 1012.1
20260505173018 14 38 20.9 25.7 0.00 0.00 0.00 57 1012.1
20260505172918 14 37 19.3 22.5 0.00 0.00 0.00 57 1012.1
20260505172818 14 27 14.5 22.5 0.00 0.00 0.00 58 1012.1
20260505172718 14 46 12.9 19.3 0.00 0.00 0.00 58 1012.2
20260505172618 14 43 14.5 16.1 0.00 0.00 0.00 58 1012.2
20260505172448 14 54 14.5 19.3 0.00 0.00 0.00 58 1012.2
20260505172348 15 45 16.1 19.3 0.00 0.00 0.00 57 1012.2
20260505172248 15 48 16.1 20.9 0.00 0.00 0.00 57 1012.2
20260505172148 15 52 16.1 22.5 0.00 0.00 0.00 58 1012.2
20260505172048 15 47 14.5 25.7 0.00 0.00 0.00 58 1012.2
20260505171918 15 55 16.1 19.3 0.00 0.00 0.00 57 1012.2
20260505171817 15 52 12.9 19.3 0.00 0.00 0.00 58 1012.2
20260505171717 15 49 14.5 19.3 0.00 0.00 0.00 58 1012.2
20260505171617 15 39 16.1 20.9 0.00 0.00 0.00 58 1012.2
20260505171517 15 42 16.1 19.3 0.00 0.00 0.00 58 1012.3
20260505171417 15 36 12.9 19.3 0.00 0.00 0.00 58 1012.3
20260505171247 15 32 14.5 19.3 0.00 0.00 0.00 57 1012.3
20260505171147 15 45 12.9 19.3 0.00 0.00 0.00 57 1012.2
20260505171047 15 45 14.5 16.1 0.00 0.00 0.00 57 1012.3
20260505170947 15 49 19.3 20.9 0.00 0.00 0.00 57 1012.2
20260505170847 15 57 16.1 24.1 0.00 0.00 0.00 57 1012.2
20260505170747 15 52 16.1 20.9 0.00 0.00 0.00 57 1012.3
20260505170647 15 36 16.1 22.5 0.00 0.00 0.00 57 1012.2
20260505170547 15 31 19.3 22.5 0.00 0.00 0.00 57 1012.3
20260505170447 15 34 16.1 20.9 0.00 0.00 0.00 58 1012.3
20260505170347 15 31 19.3 24.1 0.00 0.00 0.00 57 1012.3
20260505170247 15 35 14.5 24.1 0.00 0.00 0.00 57 1012.3
20260505170147 15 20 12.9 19.3 0.00 0.00 0.00 57 1012.2
20260505170047 15 28 14.5 19.3 0.00 0.00 0.00 56 1012.3
20260505165946 15 24 11.3 16.1 0.00 0.00 0.00 57 1012.3
20260505165846 15 42 8.0 9.7 0.00 0.00 0.00 58 1012.3
20260505165746 15 46 8.0 9.7 0.00 0.00 0.00 58 1012.3
20260505165646 15 53 9.7 12.9 0.00 0.00 0.00 57 1012.3
20260505165546 15 31 9.7 14.5 0.00 0.00 0.00 58 1012.3
20260505165446 15 32 9.7 12.9 0.00 0.00 0.00 57 1012.3
20260505165316 15 48 9.7 14.5 0.00 0.00 0.00 57 1012.3
20260505165216 15 37 9.7 14.5 0.00 0.00 0.00 57 1012.3
20260505165116 15 49 11.3 12.9 0.00 0.00 0.00 57 1012.3
20260505165016 15 46 12.9 14.5 0.00 0.00 0.00 56 1012.3
20260505164916 15 31 12.9 19.3 0.00 0.00 0.00 57 1012.3
20260505164816 15 49 11.3 12.9 0.00 0.00 0.00 57 1012.3
20260505164716 15 46 11.3 16.1 0.00 0.00 0.00 57 1012.3
20260505164616 15 37 12.9 14.5 0.00 0.00 0.00 56 1012.3
20260505164516 15 26 14.5 19.3 0.00 0.00 0.00 57 1012.3
20260505164416 15 29 16.1 19.3 0.00 0.00 0.00 56 1012.3
20260505164316 15 27 14.5 20.9 0.00 0.00 0.00 57 1012.3
20260505164216 15 52 12.9 19.3 0.00 0.00 0.00 57 1012.3
20260505164116 15 46 11.3 16.1 0.00 0.00 0.00 57 1012.3
20260505164028 15 26 11.3 16.1 0.00 0.00 0.00 58 1012.3
20260505153342 15 354 16.1 24.1 0.00 0.00 0.00 57 1012.4
20260505153242 15 6 19.3 22.5 0.00 0.00 0.00 57 1012.4
20260505153142 15 350 19.3 24.1 0.00 0.00 0.00 56 1012.4
20260505153012 15 354 16.1 22.5 0.00 0.00 0.00 56 1012.4
20260505152912 15 346 22.5 25.7 0.00 0.00 0.00 55 1012.4
20260505152812 15 340 19.3 25.7 0.00 0.00 0.00 55 1012.4
20260505152711 15 356 12.9 25.7 0.00 0.00 0.00 57 1012.4
20260505152611 15 41 12.9 16.1 0.00 0.00 0.00 56 1012.3
20260505152441 15 0 14.5 19.3 0.00 0.00 0.00 56 1012.4
20260505152341 15 30 16.1 20.9 0.00 0.00 0.00 56 1012.4
20260505152241 15 28 14.5 24.1 0.00 0.00 0.00 57 1012.4
20260505152141 15 37 14.5 19.3 0.00 0.00 0.00 57 1012.3
20260505152041 15 28 16.1 19.3 0.00 0.00 0.00 57 1012.4
20260505151941 15 1 16.1 20.9 0.00 0.00 0.00 57 1012.4
20260505151841 15 17 16.1 22.5 0.00 0.00 0.00 57 1012.4
20260505151711 15 34 16.1 22.5 0.00 0.00 0.00 57 1012.4
20260505151611 15 351 14.5 20.9 0.00 0.00 0.00 56 1012.4
20260505151511 15 5 16.1 24.1 0.00 0.00 0.00 57 1012.4
20260505151411 15 14 14.5 22.5 0.00 0.00 0.00 57 1012.4
20260505151311 15 39 16.1 19.3 0.00 0.00 0.00 57 1012.4
20260505151211 15 22 16.1 20.9 0.00 0.00 0.00 56 1012.5
20260505151111 15 34 19.3 22.5 0.00 0.00 0.00 56 1012.5
20260505151011 15 23 16.1 25.7 0.00 0.00 0.00 56 1012.5
20260505150911 15 52 19.3 20.9 0.00 0.00 0.00 56 1012.5
20260505150811 15 25 22.5 27.4 0.00 0.00 0.00 55 1012.5
20260505150711 15 30 20.9 25.7 0.00 0.00 0.00 55 1012.5
20260505150611 15 19 20.9 25.7 0.00 0.00 0.00 57 1012.5
20260505150511 15 30 16.1 25.7 0.00 0.00 0.00 58 1012.5
20260505150410 15 28 19.3 20.9 0.00 0.00 0.00 58 1012.5
20260505150310 15 32 22.5 25.7 0.00 0.00 0.00 58 1012.5
20260505150210 15 28 22.5 27.4 0.00 0.00 0.00 58 1012.5
20260505150110 15 23 20.9 29.0 0.00 0.00 0.00 57 1012.5
20260505140637 16 23 19.3 27.4 0.00 0.00 0.00 58 1012.6
20260505140537 16 25 20.9 22.5 0.00 0.00 0.00 58 1012.6
20260505140437 16 29 25.7 29.0 0.00 0.00 0.00 57 1012.6
20260505140337 16 31 27.4 29.0 0.00 0.00 0.00 57 1012.6
20260505140237 16 17 24.1 35.4 0.00 0.00 0.00 58 1012.6
20260505140137 16 31 19.3 27.4 0.00 0.00 0.00 57 1012.6
20260505130304 15 20 19.3 24.1 0.00 0.00 0.00 61 1012.8
20260505130204 15 10 19.3 24.1 0.00 0.00 0.00 61 1012.8
20260505124934 15 23 14.5 19.3 0.00 0.00 0.00 61 1012.9
20260505124834 15 14 19.3 20.9 0.00 0.00 0.00 61 1012.9
20260505124704 15 30 19.3 24.1 0.00 0.00 0.00 61 1012.9
20260505124604 15 28 16.1 20.9 0.00 0.00 0.00 60 1012.9
20260505124434 15 27 16.1 20.9 0.00 0.00 0.00 60 1012.9
20260505124334 15 47 16.1 20.9 0.00 0.00 0.00 60 1012.9
20260505124234 15 26 22.5 24.1 0.00 0.00 0.00 59 1012.9
20260505124104 15 25 20.9 29.0 0.00 0.00 0.00 61 1012.9
20260505124004 15 16 20.9 24.1 0.00 0.00 0.00 61 1012.9
20260505123904 15 30 20.9 25.7 0.00 0.00 0.00 61 1012.9
20260505123734 15 22 20.9 22.5 0.00 0.00 0.00 60 1012.9
20260505123634 15 33 20.9 25.7 0.00 0.00 0.00 60 1012.9
20260505123504 15 32 19.3 24.1 0.00 0.00 0.00 61 1012.9
20260505123334 15 32 20.9 24.1 0.00 0.00 0.00 60 1012.9
20260505123234 15 33 16.1 22.5 0.00 0.00 0.00 61 1012.9
20260505123104 15 14 14.5 19.3 0.00 0.00 0.00 60 1012.9
20260505122934 15 26 16.1 22.5 0.00 0.00 0.00 60 1013.0
20260505122804 15 9 20.9 22.5 0.00 0.00 0.00 60 1013.1
20260505122704 15 39 24.1 27.4 0.00 0.00 0.00 60 1013.0
20260505122604 15 41 19.3 27.4 0.00 0.00 0.00 62 1013.0
20260505122434 15 23 19.3 22.5 0.00 0.00 0.00 61 1013.0
20260505122334 15 28 20.9 24.1 0.00 0.00 0.00 60 1013.0
20260505122234 15 7 20.9 25.7 0.00 0.00 0.00 60 1013.0
20260505122134 15 42 20.9 25.7 0.00 0.00 0.00 62 1013.1
20260505122034 15 19 16.1 22.5 0.00 0.00 0.00 61 1013.0
20260505121904 15 8 14.5 20.9 0.00 0.00 0.00 61 1013.0
20260505121734 15 14 14.5 19.3 0.00 0.00 0.00 62 1013.1
20260505121634 15 22 12.9 20.9 0.00 0.00 0.00 62 1013.1
20260505121534 15 353 11.3 14.5 0.00 0.00 0.00 61 1013.0
20260505121404 15 7 12.9 19.3 0.00 0.00 0.00 62 1013.0
20260505121304 15 41 12.9 16.1 0.00 0.00 0.00 61 1013.0
20260505121204 15 40 19.3 20.9 0.00 0.00 0.00 62 1013.0
20260505121034 15 29 16.1 20.9 0.00 0.00 0.00 62 1013.0
20260505120934 15 32 16.1 19.3 0.00 0.00 0.00 61 1013.1
20260505120834 15 14 19.3 24.1 0.00 0.00 0.00 62 1013.1
20260505120734 15 27 14.5 25.7 0.00 0.00 0.00 63 1013.0
20260505120604 15 25 14.5 19.3 0.00 0.00 0.00 62 1013.0
20260505120504 15 31 16.1 19.3 0.00 0.00 0.00 64 1013.0
20260505120404 15 16 12.9 20.9 0.00 0.00 0.00 63 1013.0
20260505120234 15 2 14.5 14.5 0.00 0.00 0.00 62 1013.1
20260505120104 15 39 14.5 20.9 0.00 0.00 0.00 63 1013.1
20260505120005 15 26 16.1 19.3 0.00 0.00 0.00 61 1013.1
20260505115904 15 22 16.1 22.5 0.00 0.00 0.00 63 1013.1
20260505115804 15 31 14.5 20.9 0.00 0.00 0.00 63 1013.1
20260505115634 15 6 12.9 19.3 0.00 0.00 0.00 62 1013.1
20260505115534 15 359 12.9 16.1 0.00 0.00 0.00 62 1013.1
20260505115434 15 356 12.9 22.5 0.00 0.00 0.00 63 1013.1
20260505115305 15 344 11.3 14.5 0.00 0.00 0.00 64 1013.1
20260505115134 15 4 9.7 11.3 0.00 0.00 0.00 64 1013.1
20260505115034 15 35 11.3 14.5 0.00 0.00 0.00 65 1013.1
20260505114904 15 24 11.3 12.9 0.00 0.00 0.00 64 1013.1
20260505114734 15 17 11.3 12.9 0.00 0.00 0.00 65 1013.1
20260505114634 15 10 11.3 14.5 0.00 0.00 0.00 65 1013.1
20260505114534 15 344 9.7 14.5 0.00 0.00 0.00 65 1013.1
20260505114404 14 0 9.7 16.1 0.00 0.00 0.00 66 1013.2
20260505114234 14 14 11.3 12.9 0.00 0.00 0.00 65 1013.2
20260505114134 14 33 12.9 16.1 0.00 0.00 0.00 66 1013.2
20260505114034 14 50 12.9 16.1 0.00 0.00 0.00 66 1013.2
20260505113904 14 19 14.5 16.1 0.00 0.00 0.00 65 1013.2
20260505113734 14 41 12.9 16.1 0.00 0.00 0.00 65 1013.2
20260505113604 14 30 14.5 19.3 0.00 0.00 0.00 65 1013.2
20260505113504 14 42 14.5 19.3 0.00 0.00 0.00 66 1013.2
20260505113404 13 55 14.5 19.3 0.00 0.00 0.00 65 1013.2
20260505113234 14 37 14.5 19.3 0.00 0.00 0.00 66 1013.1
20260505113104 13 51 11.3 19.3 0.00 0.00 0.00 68 1013.2
20260505112934 13 47 11.3 11.3 0.00 0.00 0.00 67 1013.2
20260505112804 13 44 9.7 12.9 0.00 0.00 0.00 68 1013.2
20260505112634 13 43 12.9 16.1 0.00 0.00 0.00 67 1013.2
20260505112534 13 59 11.3 14.5 0.00 0.00 0.00 68 1013.2
20260505112434 13 44 12.9 16.1 0.00 0.00 0.00 67 1013.2
20260505112334 13 21 11.3 16.1 0.00 0.00 0.00 67 1013.3
20260505112234 13 36 11.3 12.9 0.00 0.00 0.00 67 1013.3
20260505112104 13 42 14.5 19.3 0.00 0.00 0.00 67 1013.3
20260505111934 13 20 12.9 19.3 0.00 0.00 0.00 67 1013.3
20260505111834 13 36 14.5 19.3 0.00 0.00 0.00 67 1013.3
20260505111704 13 44 14.5 19.3 0.00 0.00 0.00 67 1013.2
20260505111604 13 62 11.3 19.3 0.00 0.00 0.00 67 1013.2
20260505111434 13 54 11.3 16.1 0.00 0.00 0.00 68 1013.3
20260505111334 13 36 12.9 14.5 0.00 0.00 0.00 67 1013.3
20260505111204 13 35 11.3 19.3 0.00 0.00 0.00 67 1013.3
20260505111104 13 1 14.5 19.3 0.00 0.00 0.00 68 1013.3
20260505110934 13 28 11.3 14.5 0.00 0.00 0.00 68 1013.3
20260505110834 13 25 11.3 14.5 0.00 0.00 0.00 67 1013.3
20260505110704 13 24 11.3 16.1 0.00 0.00 0.00 68 1013.3
20260505110604 13 53 11.3 14.5 0.00 0.00 0.00 68 1013.3
20260505110504 13 54 11.3 12.9 0.00 0.00 0.00 67 1013.3
20260505110334 13 51 12.9 19.3 0.00 0.00 0.00 68 1013.2
20260505110234 13 25 14.5 19.3 0.00 0.00 0.00 67 1013.2
20260505110134 13 44 16.1 20.9 0.00 0.00 0.00 67 1013.2
20260505102132 13 37 16.1 19.3 0.00 0.00 0.00 70 1013.5
20260505102031 13 54 12.9 24.1 0.00 0.00 0.00 70 1013.4
20260505101931 13 47 14.5 14.5 0.00 0.00 0.00 69 1013.5
20260505101831 13 56 14.5 19.3 0.00 0.00 0.00 70 1013.5
20260505101731 13 56 14.5 19.3 0.00 0.00 0.00 69 1013.4
20260505101631 13 46 14.5 19.3 0.00 0.00 0.00 69 1013.5
20260505101531 13 41 12.9 19.3 0.00 0.00 0.00 70 1013.4
20260505101431 13 51 16.1 19.3 0.00 0.00 0.00 69 1013.4
20260505101331 13 44 19.3 22.5 0.00 0.00 0.00 69 1013.4
20260505101231 13 51 19.3 25.7 0.00 0.00 0.00 70 1013.5
20260505101131 13 54 16.1 20.9 0.00 0.00 0.00 70 1013.5
20260505101031 13 49 19.3 20.9 0.00 0.00 0.00 69 1013.5
20260505100931 13 41 20.9 24.1 0.00 0.00 0.00 70 1013.5
20260505100831 13 48 19.3 24.1 0.00 0.00 0.00 70 1013.5
20260505100731 13 54 19.3 24.1 0.00 0.00 0.00 70 1013.4
20260505100631 13 64 16.1 22.5 0.00 0.00 0.00 70 1013.5
20260505100530 13 65 14.5 22.5 0.00 0.00 0.00 71 1013.5
20260505100400 13 45 11.3 20.9 0.00 0.00 0.00 72 1013.5
20260505100300 13 59 12.9 16.1 0.00 0.00 0.00 72 1013.5
20260505100200 13 61 11.3 16.1 0.00 0.00 0.00 71 1013.5
20260505100100 13 53 16.1 20.9 0.00 0.00 0.00 70 1013.5
20260505100000 13 52 20.9 22.5 0.00 0.00 0.00 71 1013.5
20260505095900 13 53 20.9 25.7 0.00 0.00 0.00 71 1013.5
20260505095800 13 50 16.1 25.7 0.00 0.00 0.00 72 1013.5
20260505095700 13 59 16.1 22.5 0.00 0.00 0.00 71 1013.5
20260505095600 13 49 16.1 20.9 0.00 0.00 0.00 72 1013.5
20260505095500 13 43 14.5 20.9 0.00 0.00 0.00 72 1013.5
20260505095400 13 48 14.5 22.5 0.00 0.00 0.00 72 1013.5
20260505095300 13 56 16.1 19.3 0.00 0.00 0.00 72 1013.6
20260505095200 13 54 16.1 22.5 0.00 0.00 0.00 73 1013.6
20260505095100 13 52 16.1 20.9 0.00 0.00 0.00 73 1013.5
20260505095000 13 33 14.5 19.3 0.00 0.00 0.00 72 1013.5
20260505094859 13 37 14.5 20.9 0.00 0.00 0.00 74 1013.5
20260505094759 13 35 12.9 14.5 0.00 0.00 0.00 74 1013.5
20260505094659 13 45 16.1 16.1 0.00 0.00 0.00 73 1013.5
20260505094529 13 53 14.5 24.1 0.00 0.00 0.00 74 1013.5
20260505094359 12 62 12.9 19.3 0.00 0.00 0.00 74 1013.5
20260505094229 12 50 14.5 19.3 0.00 0.00 0.00 74 1013.5
20260505094059 12 48 14.5 20.9 0.00 0.00 0.00 74 1013.5
20260505093959 12 47 16.1 20.9 0.00 0.00 0.00 74 1013.5
20260505093829 12 43 16.1 22.5 0.00 0.00 0.00 73 1013.6
20260505093729 12 49 19.3 20.9 0.00 0.00 0.00 74 1013.6
20260505093629 12 48 19.3 22.5 0.00 0.00 0.00 73 1013.6
20260505093529 12 41 19.3 20.9 0.00 0.00 0.00 73 1013.6
20260505093429 12 45 16.1 25.7 0.00 0.00 0.00 74 1013.6
20260505093329 12 48 12.9 19.3 0.00 0.00 0.00 74 1013.6
20260505093159 12 52 14.5 14.5 0.00 0.00 0.00 73 1013.6
20260505093059 12 60 20.9 25.7 0.00 0.00 0.00 73 1013.6
20260505092959 12 54 14.5 22.5 0.00 0.00 0.00 74 1013.6
20260505092859 12 57 12.9 19.3 0.00 0.00 0.00 74 1013.6
20260505092759 12 53 19.3 27.4 0.00 0.00 0.00 73 1013.6
20260505092659 12 56 16.1 22.5 0.00 0.00 0.00 73 1013.6
20260505092559 12 55 19.3 22.5 0.00 0.00 0.00 73 1013.6
20260505092429 12 58 16.1 27.4 0.00 0.00 0.00 74 1013.6
20260505092259 12 52 14.5 14.5 0.00 0.00 0.00 74 1013.6
20260505092159 12 47 16.1 20.9 0.00 0.00 0.00 74 1013.6
20260505092059 12 55 19.3 20.9 0.00 0.00 0.00 73 1013.6
20260505091929 12 47 19.3 25.7 0.00 0.00 0.00 73 1013.6
20260505091759 12 65 14.5 24.1 0.00 0.00 0.00 74 1013.6
20260505091659 12 60 16.1 22.5 0.00 0.00 0.00 74 1013.7
20260505091559 12 53 16.1 24.1 0.00 0.00 0.00 74 1013.6
20260505091429 12 58 16.1 19.3 0.00 0.00 0.00 74 1013.7
20260505091329 12 51 14.5 19.3 0.00 0.00 0.00 74 1013.7
20260505091229 12 53 14.5 19.3 0.00 0.00 0.00 74 1013.6
20260505091059 12 66 14.5 20.9 0.00 0.00 0.00 74 1013.7
20260505090929 12 51 12.9 19.3 0.00 0.00 0.00 75 1013.7
20260505090759 12 53 14.5 16.1 0.00 0.00 0.00 74 1013.6
20260505090659 12 52 16.1 19.3 0.00 0.00 0.00 75 1013.6
20260505090529 12 46 14.5 20.9 0.00 0.00 0.00 75 1013.6
20260505090429 12 61 14.5 19.3 0.00 0.00 0.00 75 1013.6
20260505090329 12 57 12.9 20.9 0.00 0.00 0.00 76 1013.6
20260505090159 12 56 19.3 24.1 0.00 0.00 0.00 75 1013.7
20260505090029 12 44 20.9 24.1 0.00 0.00 0.00 75 1013.7
20260505085859 12 47 22.5 25.7 0.00 0.00 0.00 75 1013.6
20260505085759 12 52 20.9 29.0 0.00 0.00 0.00 75 1013.6
20260505085629 12 56 16.1 22.5 0.00 0.00 0.00 75 1013.7
20260505085529 12 50 19.3 19.3 0.00 0.00 0.00 75 1013.7
20260505085429 12 53 22.5 24.1 0.00 0.00 0.00 74 1013.7
20260505085329 12 49 19.3 27.4 0.00 0.00 0.00 75 1013.7
20260505085229 12 56 19.3 24.1 0.00 0.00 0.00 75 1013.7
20260505085129 12 62 16.1 19.3 0.00 0.00 0.00 75 1013.7
20260505084959 12 59 19.3 24.1 0.00 0.00 0.00 76 1013.7
20260505084859 12 62 12.9 22.5 0.00 0.00 0.00 77 1013.7
20260505084759 12 53 12.9 16.1 0.00 0.00 0.00 76 1013.7
20260505084629 12 52 19.3 22.5 0.00 0.00 0.00 76 1013.7
20260505084529 12 48 19.3 25.7 0.00 0.00 0.00 76 1013.7
20260505084429 12 39 19.3 22.5 0.00 0.00 0.00 76 1013.7
20260505084329 12 41 16.1 22.5 0.00 0.00 0.00 76 1013.7
20260505084159 12 41 16.1 24.1 0.00 0.00 0.00 76 1013.7
20260505084059 12 48 16.1 19.3 0.00 0.00 0.00 75 1013.6
20260505083929 12 53 16.1 20.9 0.00 0.00 0.00 75 1013.6
20260505083829 12 55 16.1 22.5 0.00 0.00 0.00 75 1013.6
20260505083729 12 54 14.5 20.9 0.00 0.00 0.00 75 1013.6
20260505083629 12 61 19.3 19.3 0.00 0.00 0.00 74 1013.7
20260505083529 12 50 22.5 27.4 0.00 0.00 0.00 74 1013.6
20260505083429 12 57 20.9 29.0 0.00 0.00 0.00 74 1013.6
20260505083329 12 59 16.1 24.1 0.00 0.00 0.00 74 1013.7
20260505083229 12 49 16.1 22.5 0.00 0.00 0.00 75 1013.6
20260505083129 12 62 16.1 19.3 0.00 0.00 0.00 74 1013.6
20260505083029 12 53 16.1 20.9 0.00 0.00 0.00 74 1013.6
20260505082929 12 57 19.3 22.5 0.00 0.00 0.00 74 1013.6
20260505082829 12 61 20.9 22.5 0.00 0.00 0.00 74 1013.6
20260505082729 12 56 20.9 27.4 0.00 0.00 0.00 74 1013.6
20260505082629 12 60 19.3 22.5 0.00 0.00 0.00 74 1013.6
20260505082529 12 60 20.9 24.1 0.00 0.00 0.00 73 1013.6
20260505082428 12 60 24.1 32.2 0.00 0.00 0.00 73 1013.6
20260505082328 12 61 20.9 32.2 0.00 0.00 0.00 73 1013.6
20260505082228 12 56 20.9 22.5 0.00 0.00 0.00 72 1013.6
20260505082128 12 56 22.5 27.4 0.00 0.00 0.00 72 1013.6
20260505082028 12 56 20.9 29.0 0.00 0.00 0.00 73 1013.6
20260505081928 12 46 20.9 24.1 0.00 0.00 0.00 73 1013.6
20260505081828 12 44 16.1 25.7 0.00 0.00 0.00 75 1013.6
20260505081658 12 57 20.9 25.7 0.00 0.00 0.00 73 1013.6
20260505081558 12 47 20.9 24.1 0.00 0.00 0.00 74 1013.6
20260505081458 12 47 20.9 27.4 0.00 0.00 0.00 74 1013.7
20260505081358 12 60 22.5 29.0 0.00 0.00 0.00 74 1013.6
20260505081258 12 51 20.9 25.7 0.00 0.00 0.00 74 1013.7
20260505081158 12 52 16.1 22.5 0.00 0.00 0.00 74 1013.7
20260505081057 12 62 20.9 29.0 0.00 0.00 0.00 74 1013.7
20260505080957 12 63 16.1 27.4 0.00 0.00 0.00 75 1013.7
20260505080857 12 58 16.1 19.3 0.00 0.00 0.00 74 1013.8
20260505080757 12 62 22.5 29.0 0.00 0.00 0.00 74 1013.7
20260505080657 12 59 25.7 32.2 0.00 0.00 0.00 74 1013.7
20260505080557 12 56 22.5 32.2 0.00 0.00 0.00 74 1013.8
20260505080457 12 57 20.9 24.1 0.00 0.00 0.00 74 1013.8
20260505080357 12 58 24.1 27.4 0.00 0.00 0.00 74 1013.7
20260505080257 12 54 22.5 29.0 0.00 0.00 0.00 74 1013.7
20260505080157 12 53 24.1 32.2 0.00 0.00 0.00 75 1013.8
20260505080057 12 58 22.5 27.4 0.00 0.00 0.00 74 1013.8
20260505075957 12 52 24.1 33.8 0.00 0.00 0.00 75 1013.8
20260505075857 12 53 24.1 32.2 0.00 0.00 0.00 75 1013.8
20260505075757 12 56 24.1 29.0 0.00 0.00 0.00 75 1013.7
20260505075657 12 60 25.7 32.2 0.00 0.00 0.00 75 1013.7
20260505075557 12 48 22.5 32.2 0.00 0.00 0.00 75 1013.7
20260505075457 12 59 16.1 24.1 0.00 0.00 0.00 76 1013.7
20260505075356 12 59 14.5 19.3 0.00 0.00 0.00 76 1013.8
20260505075256 12 53 20.9 22.5 0.00 0.00 0.00 75 1013.7
20260505075156 12 47 25.7 29.0 0.00 0.00 0.00 75 1013.7
20260505075056 12 46 24.1 32.2 0.00 0.00 0.00 76 1013.7
20260505074956 12 49 22.5 27.4 0.00 0.00 0.00 76 1013.7
20260505074856 12 52 24.1 27.4 0.00 0.00 0.00 76 1013.7
20260505074756 12 51 22.5 32.2 0.00 0.00 0.00 76 1013.7
20260505074656 12 54 19.3 25.7 0.00 0.00 0.00 76 1013.7
20260505074556 12 59 20.9 25.7 0.00 0.00 0.00 76 1013.7
20260505074456 12 53 20.9 29.0 0.00 0.00 0.00 76 1013.7
20260505074356 12 56 22.5 32.2 0.00 0.00 0.00 76 1013.7
20260505074256 12 51 20.9 24.1 0.00 0.00 0.00 77 1013.7
20260505074156 12 59 16.1 25.7 0.00 0.00 0.00 78 1013.7
20260505074055 11 59 19.3 20.9 0.00 0.00 0.00 77 1013.7
20260505073955 11 57 19.3 24.1 0.00 0.00 0.00 78 1013.6
20260505073855 11 55 19.3 25.7 0.00 0.00 0.00 78 1013.6
20260505073755 11 56 22.5 27.4 0.00 0.00 0.00 78 1013.7
20260505073655 11 57 16.1 27.4 0.00 0.00 0.00 78 1013.6
20260505073555 11 56 19.3 20.9 0.00 0.00 0.00 78 1013.6
20260505073455 11 61 14.5 22.5 0.00 0.00 0.00 79 1013.6
20260505073355 11 55 14.5 19.3 0.00 0.00 0.00 79 1013.6
20260505073255 11 52 14.5 19.3 0.00 0.00 0.00 79 1013.6
20260505073155 11 59 14.5 20.9 0.00 0.00 0.00 79 1013.6
20260505073055 11 59 11.3 20.9 0.00 0.00 0.00 79 1013.6
20260505072955 11 57 14.5 19.3 0.00 0.00 0.00 79 1013.6
20260505072855 11 56 16.1 24.1 0.00 0.00 0.00 79 1013.6
20260505072754 11 55 14.5 20.9 0.00 0.00 0.00 79 1013.6
20260505072654 11 53 14.5 19.3 0.00 0.00 0.00 79 1013.6
20260505072554 11 54 20.9 20.9 0.00 0.00 0.00 79 1013.6
20260505072454 11 55 20.9 24.1 0.00 0.00 0.00 79 1013.5
20260505072354 11 53 19.3 27.4 0.00 0.00 0.00 79 1013.5
20260505072254 11 57 20.9 22.5 0.00 0.00 0.00 79 1013.5
20260505072154 11 54 22.5 24.1 0.00 0.00 0.00 79 1013.5
20260505072054 11 57 24.1 29.0 0.00 0.00 0.00 79 1013.5
20260505071954 11 47 22.5 32.2 0.00 0.00 0.00 79 1013.5
20260505071854 11 54 20.9 24.1 0.00 0.00 0.00 79 1013.5
20260505071754 11 48 20.9 24.1 0.00 0.00 0.00 79 1013.5
20260505071654 11 49 19.3 27.4 0.00 0.00 0.00 79 1013.5
20260505071554 11 51 20.9 20.9 0.00 0.00 0.00 79 1013.5
20260505071454 11 55 24.1 29.0 0.00 0.00 0.00 79 1013.5
20260505071354 11 54 20.9 25.7 0.00 0.00 0.00 79 1013.5
20260505071254 11 57 19.3 27.4 0.00 0.00 0.00 79 1013.5
20260505071154 11 58 24.1 29.0 0.00 0.00 0.00 79 1013.5
20260505071023 11 55 24.1 32.2 0.00 0.00 0.00 79 1013.6
20260505070923 11 57 20.9 27.4 0.00 0.00 0.00 79 1013.6
20260505070823 11 54 19.3 27.4 0.00 0.00 0.00 79 1013.6
20260505070723 11 49 20.9 25.7 0.00 0.00 0.00 79 1013.6
20260505070623 11 45 19.3 22.5 0.00 0.00 0.00 80 1013.6
20260505070523 11 56 19.3 22.5 0.00 0.00 0.00 80 1013.6
20260505070423 11 54 20.9 22.5 0.00 0.00 0.00 80 1013.6
20260505070323 11 58 20.9 25.7 0.00 0.00 0.00 80 1013.6
20260505070223 11 54 22.5 22.5 0.00 0.00 0.00 80 1013.6
20260505070123 11 60 24.1 27.4 0.00 0.00 0.00 79 1013.6
20260505070023 11 51 22.5 29.0 0.00 0.00 0.00 80 1013.5
20260505065923 11 55 20.9 27.4 0.00 0.00 0.00 79 1013.6
20260505065823 11 53 22.5 24.1 0.00 0.00 0.00 80 1013.5
20260505065723 11 49 19.3 25.7 0.00 0.00 0.00 80 1013.6
20260505065623 11 59 14.5 19.3 0.00 0.00 0.00 80 1013.6
20260505065523 11 53 19.3 24.1 0.00 0.00 0.00 80 1013.6
20260505065422 11 50 16.1 22.5 0.00 0.00 0.00 80 1013.6
20260505065322 11 58 20.9 20.9 0.00 0.00 0.00 80 1013.6
20260505065222 11 58 20.9 32.2 0.00 0.00 0.00 80 1013.7
20260505065122 11 52 20.9 25.7 0.00 0.00 0.00 80 1013.7
20260505065022 11 60 20.9 27.4 0.00 0.00 0.00 80 1013.7
20260505064922 11 53 19.3 24.1 0.00 0.00 0.00 81 1013.7
20260505064822 11 45 19.3 22.5 0.00 0.00 0.00 81 1013.7
20260505064722 11 54 19.3 20.9 0.00 0.00 0.00 81 1013.7
20260505064622 11 54 19.3 22.5 0.00 0.00 0.00 81 1013.7
20260505064522 11 52 19.3 22.5 0.00 0.00 0.00 81 1013.7
20260505064422 11 53 20.9 24.1 0.00 0.00 0.00 81 1013.7
20260505064322 11 53 19.3 25.7 0.00 0.00 0.00 81 1013.6
20260505064222 11 50 20.9 25.7 0.00 0.00 0.00 81 1013.6
20260505064122 11 54 19.3 25.7 0.00 0.00 0.00 81 1013.7
20260505064022 11 55 19.3 22.5 0.00 0.00 0.00 81 1013.7
20260505063922 11 47 20.9 22.5 0.00 0.00 0.00 81 1013.7
20260505063752 11 54 16.1 22.5 0.00 0.00 0.00 81 1013.7
20260505063651 11 58 16.1 20.9 0.00 0.00 0.00 81 1013.7
20260505063551 11 55 16.1 20.9 0.00 0.00 0.00 81 1013.8
20260505063421 11 48 19.3 22.5 0.00 0.00 0.00 81 1013.8
20260505063321 11 56 19.3 25.7 0.00 0.00 0.00 81 1013.8
20260505063221 11 52 14.5 22.5 0.00 0.00 0.00 81 1013.8
20260505063121 11 51 16.1 20.9 0.00 0.00 0.00 81 1013.8
20260505063021 11 54 14.5 19.3 0.00 0.00 0.00 81 1013.8
20260505062921 11 54 12.9 16.1 0.00 0.00 0.00 81 1013.8
20260505062821 11 55 14.5 14.5 0.00 0.00 0.00 81 1013.7
20260505062721 11 56 19.3 19.3 0.00 0.00 0.00 81 1013.7
20260505062621 11 55 19.3 25.7 0.00 0.00 0.00 81 1013.7
20260505062521 11 47 16.1 22.5 0.00 0.00 0.00 81 1013.7
20260505062421 11 56 14.5 20.9 0.00 0.00 0.00 81 1013.7
20260505062321 11 53 19.3 19.3 0.00 0.00 0.00 80 1013.7
20260505062220 11 52 20.9 27.4 0.00 0.00 0.00 81 1013.7
20260505062120 11 50 19.3 22.5 0.00 0.00 0.00 81 1013.7
20260505062020 11 56 19.3 20.9 0.00 0.00 0.00 81 1013.7
20260505061920 11 57 19.3 22.5 0.00 0.00 0.00 81 1013.7
20260505061820 11 55 16.1 20.9 0.00 0.00 0.00 80 1013.7
20260505061720 11 49 16.1 20.9 0.00 0.00 0.00 81 1013.7
20260505061620 11 53 19.3 19.3 0.00 0.00 0.00 80 1013.7
20260505061520 11 64 19.3 25.7 0.00 0.00 0.00 81 1013.7
20260505061420 11 49 19.3 20.9 0.00 0.00 0.00 80 1013.7
20260505061320 11 55 19.3 24.1 0.00 0.00 0.00 81 1013.7
20260505061220 11 55 16.1 24.1 0.00 0.00 0.00 80 1013.6
20260505061120 11 51 19.3 25.7 0.00 0.00 0.00 81 1013.6
20260505061020 11 59 14.5 25.7 0.00 0.00 0.00 81 1013.6
20260505060920 11 54 16.1 22.5 0.00 0.00 0.00 81 1013.6
20260505060820 11 52 20.9 24.1 0.00 0.00 0.00 81 1013.6
20260505060720 11 50 22.5 32.2 0.00 0.00 0.00 81 1013.6
20260505060619 11 57 16.1 32.2 0.00 0.00 0.00 81 1013.6
20260505060519 11 61 19.3 20.9 0.00 0.00 0.00 81 1013.6
20260505060419 11 57 19.3 24.1 0.00 0.00 0.00 81 1013.6
20260505060319 11 54 16.1 24.1 0.00 0.00 0.00 81 1013.6
20260505060219 11 53 14.5 20.9 0.00 0.00 0.00 81 1013.6
20260505060119 11 54 14.5 19.3 0.00 0.00 0.00 81 1013.6
20260505060019 11 56 14.5 24.1 0.00 0.00 0.00 81 1013.6
20260505055919 11 56 19.3 19.3 0.00 0.00 0.00 81 1013.6
20260505055819 11 58 19.3 22.5 0.00 0.00 0.00 81 1013.6
20260505055719 11 58 14.5 22.5 0.00 0.00 0.00 81 1013.6
20260505055619 11 56 16.1 19.3 0.00 0.00 0.00 82 1013.6
20260505055449 11 57 12.9 19.3 0.00 0.00 0.00 82 1013.6
20260505055349 11 51 14.5 19.3 0.00 0.00 0.00 82 1013.6
20260505055249 11 52 14.5 19.3 0.00 0.00 0.00 82 1013.6
20260505055148 11 60 14.5 24.1 0.00 0.00 0.00 82 1013.6
20260505055048 11 61 12.9 16.1 0.00 0.00 0.00 82 1013.6
20260505054948 11 63 12.9 16.1 0.00 0.00 0.00 82 1013.5
20260505054848 11 63 14.5 16.1 0.00 0.00 0.00 82 1013.5
20260505054748 11 63 16.1 20.9 0.00 0.00 0.00 82 1013.5
20260505054648 11 51 19.3 27.4 0.00 0.00 0.00 83 1013.5
20260505054548 11 55 20.9 27.4 0.00 0.00 0.00 83 1013.5
20260505054448 11 61 16.1 29.0 0.00 0.00 0.00 83 1013.5
20260505054348 11 55 16.1 19.3 0.00 0.00 0.00 83 1013.5
20260505054248 11 57 16.1 20.9 0.00 0.00 0.00 83 1013.5
20260505054148 11 58 16.1 20.9 0.00 0.00 0.00 83 1013.5
20260505054048 11 61 16.1 22.5 0.00 0.00 0.00 83 1013.5
20260505053948 11 54 16.1 19.3 0.00 0.00 0.00 83 1013.5
20260505053848 11 54 20.9 25.7 0.00 0.00 0.00 84 1013.5
20260505053748 11 58 19.3 25.7 0.00 0.00 0.00 84 1013.5
20260505053648 11 60 16.1 24.1 0.00 0.00 0.00 84 1013.5
20260505053548 11 58 16.1 19.3 0.00 0.00 0.00 84 1013.5
20260505053447 11 59 19.3 24.1 0.00 0.00 0.00 84 1013.5
20260505053347 11 58 19.3 22.5 0.00 0.00 0.00 84 1013.5
20260505053247 11 59 14.5 24.1 0.00 0.00 0.00 84 1013.5
20260505053147 11 53 14.5 20.9 0.00 0.00 0.00 84 1013.5
20260505053047 11 55 14.5 20.9 0.00 0.00 0.00 84 1013.4
20260505052947 11 56 12.9 19.3 0.00 0.00 0.00 84 1013.4
20260505052847 11 55 14.5 19.3 0.00 0.00 0.00 84 1013.4
20260505052747 11 55 16.1 19.3 0.00 0.00 0.00 84 1013.4
20260505052647 11 54 16.1 20.9 0.00 0.00 0.00 84 1013.4
20260505052547 11 52 19.3 20.9 0.00 0.00 0.00 84 1013.4
20260505052447 11 57 16.1 20.9 0.00 0.00 0.00 84 1013.4
20260505052347 11 56 16.1 20.9 0.00 0.00 0.00 84 1013.4
20260505052247 11 51 16.1 25.7 0.00 0.00 0.00 85 1013.4
20260505052146 11 60 19.3 24.1 0.00 0.00 0.00 85 1013.4
20260505052046 11 53 19.3 25.7 0.00 0.00 0.00 85 1013.4
20260505051946 11 51 16.1 22.5 0.00 0.00 0.00 85 1013.4
20260505051846 11 52 20.9 25.7 0.00 0.00 0.00 85 1013.3
20260505051746 11 60 16.1 24.1 0.00 0.00 0.00 85 1013.3
20260505051646 11 45 16.1 19.3 0.00 0.00 0.00 85 1013.3
20260505051546 11 54 14.5 20.9 0.00 0.00 0.00 85 1013.3
20260505051446 11 50 14.5 19.3 0.00 0.00 0.00 85 1013.3
20260505051346 11 54 19.3 25.7 0.00 0.00 0.00 85 1013.3
20260505051246 11 56 14.5 25.7 0.00 0.00 0.00 85 1013.3
20260505051146 11 58 16.1 20.9 0.00 0.00 0.00 85 1013.3
20260505051046 11 56 16.1 22.5 0.00 0.00 0.00 85 1013.3
20260505050946 11 58 14.5 19.3 0.00 0.00 0.00 85 1013.2
20260505050845 11 56 16.1 19.3 0.00 0.00 0.00 85 1013.2
20260505050745 11 59 19.3 25.7 0.00 0.00 0.00 85 1013.2
20260505050645 11 59 16.1 20.9 0.00 0.00 0.00 85 1013.2
20260505050545 11 54 14.5 19.3 0.00 0.00 0.00 85 1013.2
20260505050445 11 60 14.5 19.3 0.00 0.00 0.00 85 1013.2
20260505050345 11 57 14.5 19.3 0.00 0.00 0.00 85 1013.2
20260505050245 11 56 14.5 19.3 0.00 0.00 0.00 85 1013.2
20260505050145 11 60 14.5 19.3 0.00 0.00 0.00 85 1013.2
20260505041712 11 63 14.5 19.3 0.00 0.00 0.00 86 1013.3
20260505041612 11 61 16.1 20.9 0.00 0.00 0.00 86 1013.3
20260505041512 11 63 14.5 20.9 0.00 0.00 0.00 86 1013.3
20260505041412 11 68 12.9 19.3 0.00 0.00 0.00 86 1013.3
20260505041312 11 65 14.5 16.1 0.00 0.00 0.00 86 1013.3
20260505041212 11 55 12.9 19.3 0.00 0.00 0.00 86 1013.3
20260505041111 11 60 12.9 16.1 0.00 0.00 0.00 86 1013.3
20260505041011 11 63 12.9 14.5 0.00 0.00 0.00 85 1013.3
20260505040911 11 58 11.3 14.5 0.00 0.00 0.00 85 1013.4
20260505040811 11 64 11.3 12.9 0.00 0.00 0.00 85 1013.3
20260505040711 11 56 9.7 12.9 0.00 0.00 0.00 85 1013.3
20260505040611 11 60 11.3 14.5 0.00 0.00 0.00 85 1013.3
20260505040511 11 57 11.3 14.5 0.00 0.00 0.00 85 1013.3
20260505040411 11 64 12.9 14.5 0.00 0.00 0.00 85 1013.3
20260505040311 11 60 14.5 16.1 0.00 0.00 0.00 85 1013.4
20260505040211 11 59 14.5 19.3 0.00 0.00 0.00 85 1013.4
20260505040111 11 54 12.9 19.3 0.00 0.00 0.00 85 1013.4
20260505040011 11 58 9.7 12.9 0.00 0.00 0.00 85 1013.4
20260505035911 11 62 12.9 14.5 0.00 0.00 0.00 85 1013.4
20260505035810 11 64 12.9 19.3 0.00 0.00 0.00 85 1013.4
20260505035710 11 59 11.3 19.3 0.00 0.00 0.00 85 1013.4
20260505035610 11 60 12.9 14.5 0.00 0.00 0.00 85 1013.4
20260505035510 11 65 12.9 16.1 0.00 0.00 0.00 85 1013.5
20260505035410 11 62 12.9 16.1 0.00 0.00 0.00 85 1013.4
20260505035310 11 64 12.9 16.1 0.00 0.00 0.00 85 1013.4
20260505035210 11 61 12.9 16.1 0.00 0.00 0.00 85 1013.4
20260505035110 11 59 12.9 19.3 0.00 0.00 0.00 85 1013.4
20260505035010 11 60 14.5 19.3 0.00 0.00 0.00 85 1013.4
20260505034910 11 56 12.9 19.3 0.00 0.00 0.00 85 1013.4
20260505034810 11 64 14.5 19.3 0.00 0.00 0.00 85 1013.4
20260505034710 11 64 12.9 19.3 0.00 0.00 0.00 85 1013.4
20260505034610 11 65 14.5 16.1 0.00 0.00 0.00 84 1013.5
20260505034510 11 63 16.1 20.9 0.00 0.00 0.00 85 1013.5
20260505034340 11 65 14.5 19.3 0.00 0.00 0.00 85 1013.5
20260505034240 11 69 19.3 20.9 0.00 0.00 0.00 85 1013.5
20260505034140 11 64 16.1 22.5 0.00 0.00 0.00 85 1013.5
20260505034040 11 69 12.9 20.9 0.00 0.00 0.00 85 1013.5
20260505033940 11 65 12.9 19.3 0.00 0.00 0.00 85 1013.5
20260505033839 11 68 12.9 19.3 0.00 0.00 0.00 85 1013.5
20260505033739 11 69 12.9 19.3 0.00 0.00 0.00 85 1013.5
20260505033609 11 65 14.5 19.3 0.00 0.00 0.00 85 1013.5
20260505033509 11 69 14.5 20.9 0.00 0.00 0.00 85 1013.6
20260505033409 11 67 16.1 19.3 0.00 0.00 0.00 84 1013.6
20260505033309 11 64 14.5 19.3 0.00 0.00 0.00 85 1013.6
20260505033209 11 65 12.9 16.1 0.00 0.00 0.00 84 1013.6
20260505033109 11 68 12.9 19.3 0.00 0.00 0.00 84 1013.6
20260505033009 11 66 12.9 19.3 0.00 0.00 0.00 85 1013.6
20260505032909 11 63 14.5 16.1 0.00 0.00 0.00 85 1013.6
20260505032809 11 69 16.1 19.3 0.00 0.00 0.00 85 1013.7
20260505032709 11 68 12.9 20.9 0.00 0.00 0.00 85 1013.7
20260505032608 11 65 12.9 16.1 0.00 0.00 0.00 85 1013.7
20260505032508 11 61 11.3 16.1 0.00 0.00 0.00 85 1013.7
20260505032408 11 73 11.3 12.9 0.00 0.00 0.00 85 1013.7
20260505032308 11 74 9.7 14.5 0.00 0.00 0.00 85 1013.7
20260505032208 11 65 9.7 11.3 0.00 0.00 0.00 85 1013.7
20260505032108 11 63 11.3 14.5 0.00 0.00 0.00 85 1013.7
20260505032008 11 70 11.3 14.5 0.00 0.00 0.00 84 1013.7
20260505031908 11 61 11.3 14.5 0.00 0.00 0.00 85 1013.7
20260505031808 11 65 12.9 14.5 0.00 0.00 0.00 85 1013.7
20260505031708 11 73 14.5 20.9 0.00 0.00 0.00 85 1013.7
20260505031608 11 68 11.3 19.3 0.00 0.00 0.00 85 1013.7
20260505031508 11 63 11.3 12.9 0.00 0.00 0.00 85 1013.7
20260505031408 11 67 12.9 14.5 0.00 0.00 0.00 85 1013.7
20260505031307 11 65 12.9 19.3 0.00 0.00 0.00 85 1013.7
20260505031207 11 67 12.9 14.5 0.00 0.00 0.00 85 1013.7
20260505031107 11 71 9.7 16.1 0.00 0.00 0.00 85 1013.7
20260505031007 11 64 9.7 16.1 0.00 0.00 0.00 85 1013.8
20260505030907 11 61 11.3 11.3 0.00 0.00 0.00 85 1013.8
20260505030807 11 66 12.9 16.1 0.00 0.00 0.00 85 1013.7
20260505030707 11 63 14.5 19.3 0.00 0.00 0.00 85 1013.7
20260505030607 11 67 11.3 19.3 0.00 0.00 0.00 85 1013.7
20260505030507 11 63 9.7 12.9 0.00 0.00 0.00 85 1013.7
20260505030407 11 64 11.3 12.9 0.00 0.00 0.00 85 1013.7
20260505030307 11 65 12.9 16.1 0.00 0.00 0.00 85 1013.7
20260505030207 11 63 11.3 16.1 0.00 0.00 0.00 85 1013.7
20260505030107 11 56 11.3 14.5 0.00 0.00 0.00 85 1013.7
20260505030007 11 56 11.3 14.5 0.00 0.00 0.00 85 1013.7
20260505025907 11 63 12.9 14.5 0.00 0.00 0.00 85 1013.7
20260505025807 11 66 11.3 14.5 0.00 0.00 0.00 85 1013.6
20260505025706 11 61 11.3 14.5 0.00 0.00 0.00 85 1013.6
20260505025606 11 66 11.3 16.1 0.00 0.00 0.00 85 1013.7
20260505025506 11 61 11.3 14.5 0.00 0.00 0.00 85 1013.7
20260505025406 11 68 11.3 16.1 0.00 0.00 0.00 85 1013.6
20260505025306 11 66 9.7 16.1 0.00 0.00 0.00 85 1013.6
20260505025206 11 63 9.7 14.5 0.00 0.00 0.00 85 1013.7
20260505025106 11 61 11.3 12.9 0.00 0.00 0.00 85 1013.6
20260505025006 11 59 12.9 16.1 0.00 0.00 0.00 85 1013.7
20260505024906 11 60 14.5 19.3 0.00 0.00 0.00 85 1013.7
20260505024806 11 60 12.9 16.1 0.00 0.00 0.00 85 1013.7
20260505024706 11 57 11.3 14.5 0.00 0.00 0.00 85 1013.7
20260505024606 11 58 12.9 12.9 0.00 0.00 0.00 85 1013.7
20260505024506 11 59 11.3 16.1 0.00 0.00 0.00 85 1013.7
20260505024405 11 58 12.9 14.5 0.00 0.00 0.00 85 1013.7
20260505024305 11 58 16.1 20.9 0.00 0.00 0.00 85 1013.7
20260505024205 11 58 12.9 20.9 0.00 0.00 0.00 85 1013.7
20260505024105 11 53 11.3 14.5 0.00 0.00 0.00 85 1013.7
20260505024005 11 59 12.9 14.5 0.00 0.00 0.00 85 1013.7
20260505023905 11 59 12.9 14.5 0.00 0.00 0.00 85 1013.7
20260505023805 11 53 12.9 14.5 0.00 0.00 0.00 85 1013.7
20260505023705 11 57 12.9 19.3 0.00 0.00 0.00 85 1013.7
20260505023605 11 60 12.9 19.3 0.00 0.00 0.00 85 1013.7
20260505023505 11 58 14.5 19.3 0.00 0.00 0.00 85 1013.7
20260505023405 11 59 14.5 19.3 0.00 0.00 0.00 85 1013.7
20260505023305 11 60 14.5 19.3 0.00 0.00 0.00 85 1013.7
20260505023205 11 60 14.5 16.1 0.00 0.00 0.00 85 1013.7
20260505023105 11 59 14.5 19.3 0.00 0.00 0.00 85 1013.7
20260505023005 11 58 14.5 19.3 0.00 0.00 0.00 85 1013.7
20260505022905 11 57 14.5 19.3 0.00 0.00 0.00 85 1013.7
20260505022804 11 62 11.3 19.3 0.00 0.00 0.00 85 1013.7
20260505022704 11 60 12.9 14.5 0.00 0.00 0.00 85 1013.7
20260505022604 11 62 12.9 16.1 0.00 0.00 0.00 85 1013.7
20260505022504 11 59 12.9 19.3 0.00 0.00 0.00 85 1013.7
20260505022404 11 57 14.5 16.1 0.00 0.00 0.00 85 1013.7
20260505022304 11 55 12.9 19.3 0.00 0.00 0.00 85 1013.7
20260505022204 11 55 14.5 19.3 0.00 0.00 0.00 85 1013.7
20260505022104 11 54 12.9 16.1 0.00 0.00 0.00 85 1013.7
20260505022004 11 52 14.5 19.3 0.00 0.00 0.00 85 1013.7
20260505021904 11 54 11.3 19.3 0.00 0.00 0.00 85 1013.7
20260505021804 11 56 12.9 14.5 0.00 0.00 0.00 85 1013.7
20260505021704 11 60 11.3 16.1 0.00 0.00 0.00 85 1013.7
20260505021604 11 62 12.9 16.1 0.00 0.00 0.00 85 1013.7
20260505021434 11 62 12.9 20.9 0.00 0.00 0.00 86 1013.7
20260505021334 11 58 12.9 14.5 0.00 0.00 0.00 86 1013.7
20260505021233 11 54 11.3 19.3 0.00 0.00 0.00 86 1013.7
20260505021133 11 56 11.3 12.9 0.00 0.00 0.00 86 1013.7
20260505021033 11 59 12.9 14.5 0.00 0.00 0.00 86 1013.7
20260505020933 11 66 11.3 19.3 0.00 0.00 0.00 86 1013.7
20260505020833 11 63 11.3 12.9 0.00 0.00 0.00 86 1013.7
20260505020733 11 57 11.3 14.5 0.00 0.00 0.00 86 1013.7
20260505020633 11 59 11.3 12.9 0.00 0.00 0.00 86 1013.7
20260505020533 11 57 12.9 19.3 0.00 0.00 0.00 86 1013.7
20260505020433 11 56 12.9 16.1 0.00 0.00 0.00 86 1013.7
20260505020333 11 64 11.3 19.3 0.00 0.00 0.00 86 1013.6
20260505020233 11 68 11.3 14.5 0.00 0.00 0.00 86 1013.6
20260505020133 11 63 11.3 12.9 0.00 0.00 0.00 85 1013.6
20260505020033 11 63 9.7 12.9 0.00 0.00 0.00 85 1013.6
20260505015933 11 62 9.7 11.3 0.00 0.00 0.00 85 1013.6
20260505015833 11 63 11.3 9.7 0.00 0.00 0.00 86 1013.6
20260505015733 11 62 12.9 14.5 0.00 0.00 0.00 85 1013.6
20260505015633 11 67 14.5 19.3 0.00 0.00 0.00 86 1013.6
20260505015532 11 67 16.1 19.3 0.00 0.00 0.00 86 1013.6
20260505015432 11 62 14.5 24.1 0.00 0.00 0.00 86 1013.7
20260505015332 11 65 14.5 19.3 0.00 0.00 0.00 86 1013.7
20260505015232 11 64 12.9 19.3 0.00 0.00 0.00 86 1013.7
20260505015132 11 63 14.5 19.3 0.00 0.00 0.00 86 1013.7
20260505015032 11 63 16.1 19.3 0.00 0.00 0.00 86 1013.7
20260505014932 11 62 16.1 19.3 0.00 0.00 0.00 86 1013.7
20260505014832 11 64 19.3 19.3 0.00 0.00 0.00 86 1013.7
20260505014732 11 63 19.3 22.5 0.00 0.00 0.00 86 1013.7
20260505014632 11 63 14.5 20.9 0.00 0.00 0.00 86 1013.7
20260505014532 11 64 14.5 19.3 0.00 0.00 0.00 86 1013.7
20260505014432 11 65 16.1 25.7 0.00 0.00 0.00 86 1013.7
20260505014332 11 63 12.9 19.3 0.00 0.00 0.00 86 1013.8
20260505014232 11 63 12.9 16.1 0.00 0.00 0.00 86 1013.8
20260505014132 11 60 12.9 19.3 0.00 0.00 0.00 86 1013.7
20260505014032 11 67 12.9 16.1 0.00 0.00 0.00 86 1013.7
20260505013931 11 63 12.9 19.3 0.00 0.00 0.00 86 1013.7
20260505013831 11 64 14.5 19.3 0.00 0.00 0.00 86 1013.8
20260505013731 11 65 12.9 19.3 0.00 0.00 0.00 86 1013.7
20260505013631 11 65 14.5 16.1 0.00 0.00 0.00 86 1013.7
20260505013531 11 63 16.1 22.5 0.00 0.00 0.00 86 1013.7
20260505013431 11 61 14.5 22.5 0.00 0.00 0.00 86 1013.7
20260505013331 11 63 12.9 19.3 0.00 0.00 0.00 86 1013.8
20260505013231 11 55 14.5 20.9 0.00 0.00 0.00 86 1013.8
20260505013131 11 66 12.9 19.3 0.00 0.00 0.00 86 1013.7
20260505013031 11 61 12.9 14.5 0.00 0.00 0.00 86 1013.7
20260505012931 11 61 12.9 14.5 0.00 0.00 0.00 86 1013.8
20260505012801 11 61 12.9 19.3 0.00 0.00 0.00 86 1013.8
20260505012700 11 62 12.9 19.3 0.00 0.00 0.00 86 1013.8
20260505012600 11 62 12.9 16.1 0.00 0.00 0.00 86 1013.8
20260505012500 11 56 14.5 19.3 0.00 0.00 0.00 86 1013.8
20260505012400 11 56 16.1 22.5 0.00 0.00 0.00 86 1013.8
20260505012300 11 54 16.1 19.3 0.00 0.00 0.00 86 1013.8
20260505012200 11 57 14.5 20.9 0.00 0.00 0.00 86 1013.9
20260505012100 11 59 14.5 19.3 0.00 0.00 0.00 86 1013.9
20260505012000 11 56 14.5 19.3 0.00 0.00 0.00 86 1013.9
20260505011900 11 57 12.9 19.3 0.00 0.00 0.00 86 1013.9
20260505011800 11 58 12.9 19.3 0.00 0.00 0.00 86 1013.9
20260505011700 11 60 16.1 19.3 0.00 0.00 0.00 86 1013.9
20260505011600 11 64 12.9 24.1 0.00 0.00 0.00 86 1013.9